Weather observations for the past three days for
Chico Municipal Airport
Metric (Imperial)
Date Time (pdt) Wind (kph) Vis. (km) Weather Sky Cond. Temperature (ºC) Relative Humidity Wind Chill (°C) Heat Index (°C) Pressure Precipitation (cm)
Air Dwpt 6 hour altimeter (cm) sea level (mb) 1 hr 3 hr 6 hr
Max. Min.
06 17:50 S 6 16.09 Fair CLR 23 14 57% 76.28 0.0
06 16:50 W 6 16.09 Fair CLR 24 14 54% 25 76.33 0.0
06 15:50 W 9 16.09 Partly Cloudy SCT040 23 14 57% 76.3 0.0
06 14:45 NW 9 16.09 Partly Cloudy SCT040 22 13 57% 76.43 0.0
06 13:55 W 9 16.09 Partly Cloudy SCT040 21 13 60% 76.45 0.0
06 13:50 N 13 16.09 Mostly Cloudy BKN040 22 13 57% 76.5 0.0
06 12:50 Calm 16.09 Mostly Cloudy BKN035 20 12 60% 76.5 0.0
06 11:55 Vrbl 7 16.09 Mostly Cloudy BKN030 0 0 0% 76.56 0.0
06 10:50 S 7 16.09 Mostly Cloudy SCT020 BKN055 19 13 68% 76.58 0.0
06 09:50 Calm 16.09 Overcast OVC042 17 13 77% 76.58 0.0
06 08:55 Calm 16.09 Overcast OVC040 17 13 77% 76.58 0.0
06 07:55 SE 6 16.09 Overcast OVC040 16 13 83% 76.56 0.0
06 07:00 SE 6 16.09 Overcast OVC055 16 13 83% 76.53 0.0
05 17:50 SE 13 16.09 Mostly Cloudy BKN035 19 11 60% 76.1 0.0
05 16:50 SE 11 16.09 Mostly Cloudy BKN030 19 11 60% 76.07 0.0
05 15:50 E 9 16.09 Mostly Cloudy BKN030 0 0 0% 76.1 0.0
05 14:55 Calm 16.09 Mostly Cloudy BKN030 18 11 64% 76.12 0.0
05 13:55 Calm 16.09 Mostly Cloudy BKN019 BKN031 18 11 64% 76.15 0.0
05 12:50 Calm 16.09 Mostly Cloudy BKN020 17 11 68% 76.2 0.0
05 11:55 S 6 16.09 Overcast BKN019 OVC080 15 11 77% 76.2 0.0
05 10:55 Calm 16.09 Overcast BKN010 OVC080 14 11 82% 76.2 0.0
05 09:55 Calm 16.09 Mostly Cloudy BKN013 14 11 82% 76.2 0.0
05 08:55 Calm 16.09 Overcast SCT010 OVC020 13 11 88% 76.2 0.0
05 07:55 SE 6 16.09 Partly Cloudy FEW025 SCT030 13 11 88% 76.2 0.0
04 17:50 SE 31 16.09 Mostly Cloudy BKN030 14 11 82% 76 0.0
04 16:50 SE 20 16.09 Mostly Cloudy SCT020 BKN050 16 11 72% 76.05 0.0
04 14:52 SE 17 16.09 Overcast OVC070 15 11 77% 76.07 0.0
04 13:52 SE 17 16.09 Overcast OVC070 15 11 77% 76.1 0.0
04 12:52 SE 17 16.09 Overcast OVC070 15 11 77% 76.1 0.0
04 09:55 SE 7 16.09 Overcast OVC055 12 11 94% 76.15 0.0
04 08:55 SE 17 16.09 Overcast OVC055 12 11 94% 76.12 0.0
04 07:55 SE 17 16.09 Overcast OVC060 13 11 88% 76.1 0.0
04 07:00 SE 13 16.09 Overcast OVC060 13 11 88% 76.1 0.0
Date Time (pdt) Wind (kph) Vis. (km) Weather Sky Cond. Air Dwpt Max. Min. Relative Humidity Wind Chill (°C) Heat Index (°C) altimeter (cm) sea level (mb) 1 hr 3 hr 6 hr
6 hour
Temperature (ºC) Pressure Precipitation (cm)